www.pogodaiklimat.ru
ПОГОДА в Келсо
Время
и дата
04:56 23.06
05:56 23.06
06:56 23.06
07:40 23.06
07:56 23.06
08:56 23.06
09:11 23.06
09:46 23.06
09:56 23.06
10:56 23.06
11:56 23.06
12:56 23.06
13:56 23.06
14:56 23.06
15:56 23.06
16:56 23.06
17:56 23.06
18:56 23.06
19:56 23.06
20:56 23.06
21:56 23.06
22:56 23.06
23:56 23.06
00:56 24.06
01:16 24.06
01:56 24.06
02:56 24.06
03:56 24.06
04:56 24.06
05:56 24.06
06:56 24.06
07:56 24.06
08:56 24.06
09:56 24.06
10:56 24.06
11:56 24.06
12:56 24.06
13:56 24.06
14:56 24.06
15:56 24.06
16:56 24.06
17:56 24.06
18:56 24.06
19:56 24.06
20:56 24.06
21:56 24.06
22:56 24.06
23:56 24.06
Ветер
(напр.,м/с)
Видим. Явления Облачность Т
(С)
Тd
(С)
f
(%)
Тe
(С)
Тes
(С)
Комфортность P
(гПа)
Po
(гПа)
Тmin
(С)
Tmax
(С)
R
(мм)
R24
(мм)
S
(см)
штиль 0 16 км 10/10 600 м +13.9 +10.0 77 +14 +14 1017.8 1016.8
СЗ 2 16 км 10/10 540 м +13.3 +10.6 84 +13 +13 1018.2 1017.1
штиль 0 16 км 10/10 780 м +14.4 +10.0 75 +14 +14 1018.5 1017.4
штиль 0 16 км 10/10 780 м +16.0 +10.0 68 +16 +16 1017.4
штиль 0 16 км 10/10 750 м +15.0 +9.4 69 +15 +15 1018.6 1017.4
нст 2 16 км 10/10 750 м +16.1 +8.9 62 +16 +16 1018.8 1017.4
СЗ 4 16 км 10/10 870 м +17.0 +10.0 63 +17 +17 1017.8
СЗ 5 16 км 5/5 810 м +17.0 +9.0 59 +16 +19 1018.1
СЗ 3 16 км 5/5 990 м +17.2 +9.4 60 +17 +22 1019.2 1018.1 +13.3 +17.2
З 4 16 км 10/10 930 м +18.3 +10.0 58 +18 +18 1019.3 1018.1
СЗ 5
{7}
16 км 10/10 1200 м +17.2 +9.4 60 +17 +17 1019.4 1018.1
З 4
{7}
16 км 10/10 1080 м +18.3 +9.4 56 +18 +18 1019.3 1018.1
СЗ 5 16 км 10/10 1110 м +18.9 +9.4 54 +19 +19 1019.4 1018.1
СЗ 5 16 км 10/10 1800 м +18.9 +9.4 54 +19 +19 1019.3 1018.1
СЗ 4 16 км 10/10 1800 м +18.3 +8.9 54 +18 +18 1019.1 1018.1 +17.2 +20.0
З 3 16 км 10/10 1800 м +18.3 +9.4 56 +19 +19 1019.0 1017.8
СЗ 5 16 км ясно +18.3 +7.8 50 +18 +21 1019.1 1017.8
СЗ 5
{8}
16 км ясно +16.7 +9.4 62 +16 +17 1019.2 1018.1
З 4 16 км ясно +15.0 +10.0 72 +14 +14 1019.2 1018.1
СЗ 3 16 км 10/10 1230 м +14.4 +10.0 75 +14 +14 1019.7 1018.5
СЗ 2 16 км 2/2 1350 м +13.9 +10.0 77 +13 +13 1020.0 1018.8 +13.9 +19.4
штиль 0 16 км 5/5 960 м +12.8 +10.0 83 +12 +12 1020.1 1018.8
штиль 0 16 км 10/10 900 м +13.3 +10.0 80 +13 +13 1019.9 1018.8
С 2 16 км 10/10 750 м +12.2 +10.0 86 +11 +11 1020.0 1018.8
С 2 16 км 5/5 750 м +12.0 +9.0 82 +11 +11 1018.8
СЗ 2 16 км ясно +10.0 +8.3 89 +8 +8 1020.0 1018.8
СЗ 2 16 км 10/10 930 м +10.6 +9.4 92 +9 +9 1020.1 1018.8
СЗ 2 16 км 10/10 930 м +11.1 +9.4 89 +10 +10 1020.1 1019.1 +10.0 +13.9
СЗ 2 16 км 10/10 870 м +10.6 +8.9 89 +9 +9 1020.3 1019.1
СЗ 2 16 км 10/10 930 м +11.1 +8.9 86 +10 +10 1020.4 1019.1
СЗ 2 16 км 10/10 930 м +12.8 +9.4 80 +12 +12 1020.4 1019.1
З 2 16 км 10/10 990 м +13.9 +9.4 74 +13 +13 1020.2 1019.1
нст 2 16 км 10/10 1050 м +15.6 +9.4 67 +16 +16 1020.0 1018.8
С 3 16 км 8/8 990 м +17.8 +8.9 56 +18 +20 1020.0 1018.8 +10.0 +18.3
СЗ 5 16 км 8/8 1110 м +18.9 +10.0 56 +19 +21 1019.9 1018.8
СЗ 5 16 км 5/5 1110 м +20.0 +9.4 50 +21 +26 комфорт 1019.6 1018.5
СЗ 4 16 км ясно +20.6 +8.9 47 +22 +35 комфорт 1018.8 1017.8
С 5 16 км ясно +22.8 +9.4 42 +24 +34 комфорт 1018.1 1017.1
СЗ 4 16 км ясно +22.8 +9.4 42 +24 +35 комфорт 1017.6 1016.4
С 4 16 км ясно +23.3 +9.4 41 +25 +33 комфорт 1017.1 1016.1 +17.2 +23.3
С 6
{8}
16 км ясно +22.8 +9.4 42 +24 +28 комфорт 1016.7 1015.4
С 5
{8}
16 км ясно +22.2 +9.4 44 +24 +26 комфорт 1016.3 1015.1
СЗ 5 16 км ясно +21.7 +9.4 45 +23 +24 комфорт 1016.4 1015.1
СЗ 3 16 км ясно +20.0 +9.4 50 +22 +22 комфорт 1016.1 1015.1
СЗ 3 16 км ясно +17.2 +10.0 63 +17 +17 1016.4 1015.1
СЗ 2 16 км ясно +16.1 +10.6 70 +16 +16 1016.3 1015.1 +16.1 +23.3
СЗ 2 16 км ясно +15.0 +10.6 75 +15 +15 1016.3 1015.1
штиль 0 16 км ясно +13.9 +10.6 80 +14 +14 1016.2 1015.1
Местоположение метеостанции Kelso-Longview Airport: широта 46.1167 долгота -122.9000 высота над уровнем моря 6 м.
В архиве по умолчанию представлена погода в Келсо за последние 1-2 суток. Обновление информации о фактической погоде в базе происходит ежечасно! Архивные данные за месяц целиком и за предыдущие месяцы Вы можете получить, выбрав интересующий диапазон дат из раскрывающегося списка и нажав кнопку "Ввод!".
Внимание! Архив погоды МЕТАР в базе сайта по станциям, не включенным в климатический монитор, хранится не более 60 дней. Нет смысла пытаться выбрать более раннюю дату.
*Определитесь, кто Вы:
Внимание! Время в таблицах - местное (без учета летнего времени). Для получения всемирного времени необходимо вычесть поправку, которая равна -8 ч.
Смотрите также архив погоды в соседних городах и на ближайших метеорологических станциях:
Партнеры нашего сайта:      
Пояснения к столбцам:
  • Ветер - указаны скорость ветра в м/с - средняя за 10 мин, порывы в срок и между сроками (в фигурных скобках) и направление, откуда дует ветер: С - северный,
  • СВ - северо-восточный, В - восточный, ЮВ - юго-восточный, Ю - южный, ЮЗ - юго-западный, З - западный, СЗ - северо-западный.
  • Видимость - горизонтальная дальность видимости в метрах или километрах. При видимости от 1 до 10 км при отсутствии осадков обычно наблюдается дымка, при ухудшении видимости до 1 км и менее - туман. В сухую погоду видимость может ухудшаться дымом, пылью или мглою.
  • Явления - указаны атмосферные явления, наблюдавшиеся в срок или в последний час перед сроком; фигурными скобками обозначены явления, наблюдавшиеся между сроками (за 1-3 часа до срока); квадратными скобками обозначены град или гололедные отложения с указанием их диаметра в мм.
  • Облачность - указаны через наклонную черту общая и нижняя облачность в баллах и высота нижней границы облаков в метрах; квадратными скобками обозначены формы облаков: Ci - перистые, Cs - перисто-слоистые, Cc - перисто-кучевые, Ac - высококучевые, As - высокослоистые, Sc - слоисто-кучевые, Ns - слоисто-дождевые, Cu - кучевые, Cb - кучево-дождевые. Подробнее классификацию облаков см. в Атласе облаков (PDF).
  • T - Температура воздуха - температура, измеренная на высоте 2 м над землей.
  • Td - Температура точки росы - температура, при понижении до которой содержащийся в воздухе водяной пар достигнет насыщения.
  • f - Относительная влажность воздуха - влажноcть воздуха, измеренная на высоте 2 м над землей.
  • Te - Эффективная температура - температура, которую ощущает одетый по сезону человек в тени. Характеристика душности погоды. При расчете учитывается влияние влажности воздуха и скорости ветра на теплоощущения человека.
  • Tes - Эффективная температура на солнце - температура, которую ощущает человек, с поправкой на солнечный нагрев. Характеристика знойности погоды. Зависит от высоты солнца над горизонтом, облачности и скорости ветра. Ночью, в пасмурную погоду, а также при ветре 12 м/с и более поправка равна нулю.
  • P - Атмосферное давление - приведенное к уровню моря атмосферное давление.
  • Po - Атмосферное давление - измеренное на уровне метеостанции атмосферное давление.
  • Tmin - Минимальная температура - минимум температуры воздуха на высоте 2 м над землей.
  • Tmax - Максимальная температура - максимум температуры воздуха на высоте 2 м над землей.
  • R - Количество осадков - Количество выпавших осадков за период времени, мм. При наведении курсора мыши на число - период времени, за который выпало указанное количество осадков.
  • R24 - Количество осадков - Количество выпавших осадков за 24 часа, мм.
  • S - Снежный покров - Высота снежного покрова, см. При наведении курсора мыши на число - состояние снежного покрова и степень покрытия местности в баллах.